Date String (YYYY-MM-DD hh:mm:ss) UTC,Instrument flags,absolute air pressure of the measurement (hPa),sample flow rate (lpm),inlet stack bypass flow (lpm),air temperature of the measurement (°C),ambient temperature measured by the external sensor (°C),aerosol sample conditioner tube jacket temperature (°C),OPC LED temperature (°C),internal box temperature (°C),relative humidity of the measurement (%),span deviation,mass concentration of particles derived from Lorenz-Mie calculation of OPC scattering (μg/m³),mass concentration of particles derived from Lorenz-Mie calculation of OPC scattering (μg/m³),mass concentration of particles derived from Lorenz-Mie calculation of OPC scattering (μg/m³)
DateTimeUTC,F1_M11,P_M11,Q1_M11,Q2_M11,T1_M11,T2_M11,T3_M11,T4_M11,T5_M11,U1_M11,ZSPAN_M11,X2_M11,X0_M11,X1_M11
2024-06-01 12:00:00,SystemResetWarning,0829.2,4.99,000.00,030.0,029.2,000.0,038.5,031.7,022.2,0000.0,0004.93,0011.56,0004.17
2024-06-01 12:01:00,SystemResetWarning,0829.2,5.00,000.00,030.0,029.2,000.0,038.5,031.8,022.1,0000.0,0005.00,0011.17,0004.20
2024-06-01 12:02:00,SystemResetWarning,0829.2,5.00,000.00,030.0,029.2,000.0,038.5,031.7,021.6,0000.0,0005.08,0011.20,0004.25
2024-06-01 12:03:00,SystemResetWarning,0829.2,5.00,000.00,030.0,029.2,000.0,038.5,031.7,021.4,0000.0,0005.10,0010.72,0004.27
2024-06-01 12:04:00,SystemResetWarning,0829.2,5.00,000.00,030.0,029.2,000.0,038.5,031.8,021.4,0000.0,0005.13,0010.64,0004.29
2024-06-01 12:05:00,SystemResetWarning,0829.2,5.00,000.00,030.0,029.2,000.0,038.5,031.7,021.0,0000.0,0005.09,0011.08,0004.27
2024-06-01 12:06:00,SystemResetWarning,0829.2,4.99,000.00,030.0,029.2,000.0,038.5,031.7,021.0,0000.0,0005.05,0011.04,0004.22
2024-06-01 12:07:00,SystemResetWarning,0829.2,5.00,000.00,030.0,029.2,000.0,038.5,031.7,021.0,0000.0,0005.03,0011.05,0004.17
2024-06-01 12:08:00,SystemResetWarning,0829.2,4.99,000.00,030.0,029.2,000.0,038.5,031.7,021.0,0000.0,0005.03,0011.24,0004.14
2024-06-01 12:09:00,SystemResetWarning,0829.2,5.00,000.00,030.0,029.2,000.0,038.4,031.7,021.0,0000.0,0004.99,0011.13,0004.10
2024-06-01 12:10:00,SystemResetWarning,0829.2,5.00,000.00,030.0,029.2,000.0,038.4,031.7,021.1,0000.0,0004.93,0011.14,0004.05
2024-06-01 12:11:00,SystemResetWarning,0829.2,5.01,000.00,030.0,029.2,000.0,038.4,031.7,021.0,0000.0,0004.88,0011.13,0004.01
2024-06-01 12:12:00,SystemResetWarning,0829.3,5.00,000.00,030.0,029.2,000.0,038.4,031.7,021.0,0000.0,0004.84,0011.14,0003.96
2024-06-01 12:13:00,SystemResetWarning,0829.3,5.01,000.00,030.0,029.2,000.0,038.4,031.7,020.9,0000.0,0004.78,0010.63,0003.91
2024-06-01 12:14:00,SystemResetWarning,0829.3,5.00,000.00,030.0,029.2,000.0,038.4,031.7,021.2,0000.0,0004.83,0010.48,0003.90
2024-06-01 12:15:00,SystemResetWarning,0829.4,5.01,000.00,030.0,029.2,000.0,038.4,031.7,021.4,0000.0,0004.82,0010.37,0003.90
2024-06-01 12:16:00,SystemResetWarning,0829.3,5.00,000.00,030.0,029.2,000.0,038.4,031.7,021.5,0000.0,0004.85,0010.16,0003.91
2024-06-01 12:17:00,SystemResetWarning,0829.3,4.99,000.00,030.0,029.2,000.0,038.4,031.7,021.3,0000.0,0004.88,0010.20,0003.92
2024-06-01 12:18:00,SystemResetWarning,0829.2,5.00,000.00,030.0,029.2,000.0,038.4,031.7,021.0,0000.0,0004.89,0010.28,0003.92
2024-06-01 12:19:00,SystemResetWarning,0829.2,4.99,000.00,030.0,029.2,000.0,038.4,031.7,021.0,0000.0,0004.86,0010.29,0003.90
2024-06-01 12:20:00,SystemResetWarning,0829.2,5.00,000.00,030.0,029.2,000.0,038.4,031.7,021.0,0000.0,0004.87,0010.58,0003.88
2024-06-01 12:21:00,SystemResetWarning,0829.3,5.01,000.00,030.0,029.2,000.0,038.4,031.7,021.3,0000.0,0004.89,0010.55,0003.88
2024-06-01 12:22:00,SystemResetWarning,0829.2,5.01,000.00,030.0,029.2,000.0,038.4,031.7,021.3,0000.0,0004.92,0010.92,0003.89
2024-06-01 12:23:00,SystemResetWarning,0829.3,5.00,000.00,030.0,029.2,000.0,038.4,031.7,021.3,0000.0,0004.94,0011.47,0003.90
2024-06-01 12:24:00,SystemResetWarning,0829.2,4.99,000.00,030.0,029.2,000.0,038.4,031.7,021.2,0000.0,0004.98,0011.67,0003.92
2024-06-01 12:25:00,SystemResetWarning,0829.2,5.00,000.00,030.0,029.2,000.0,038.4,031.7,021.0,0000.0,0004.98,0011.94,0003.92
2024-06-01 12:26:00,SystemResetWarning,0829.2,5.00,000.00,030.0,029.2,000.0,038.4,031.7,021.1,0000.0,0004.93,0011.63,0003.92
2024-06-01 12:27:00,SystemResetWarning,0829.2,5.00,000.00,030.0,029.2,000.0,038.4,031.7,021.1,0000.0,0004.89,0011.79,0003.90
2024-06-01 12:28:00,SystemResetWarning,0829.2,5.01,000.00,030.0,029.2,000.0,038.4,031.7,021.0,0000.0,0004.87,0012.09,0003.88
2024-06-01 12:29:00,SystemResetWarning,0829.2,5.01,000.00,030.0,029.2,000.0,038.4,031.7,020.8,0000.0,0004.81,0011.97,0003.86
2024-06-01 12:30:00,SystemResetWarning,0829.2,4.99,000.00,030.0,029.2,000.0,038.4,031.7,020.4,0000.0,0004.81,0012.04,0003.86
2024-06-01 12:31:00,SystemResetWarning,0829.2,4.99,000.00,030.0,029.2,000.0,038.4,031.7,019.2,0000.0,0004.76,0011.58,0003.84
2024-06-01 12:32:00,SystemResetWarning,0829.2,5.00,000.00,030.0,029.2,000.0,038.4,031.7,019.4,0000.0,0004.69,0011.53,0003.80
2024-06-01 12:33:00,SystemResetWarning,0829.2,5.01,000.00,030.0,029.2,000.0,038.4,031.7,021.3,0000.0,0004.59,0011.12,0003.76
2024-06-01 12:34:00,SystemResetWarning,0829.2,5.01,000.00,030.0,029.2,000.0,038.4,031.7,022.5,0000.0,0004.56,0010.73,0003.75
2024-06-01 12:35:00,SystemResetWarning,0829.2,5.00,000.00,030.0,029.2,000.0,038.4,031.7,022.1,0000.0,0004.57,0010.85,0003.76
2024-06-01 12:36:00,SystemResetWarning,0829.1,4.99,000.00,030.0,029.2,000.0,038.4,031.7,022.0,0000.0,0004.59,0010.69,0003.77
2024-06-01 12:37:00,SystemResetWarning,0829.1,5.00,000.00,030.0,029.2,000.0,038.4,031.7,021.6,0000.0,0004.62,0011.24,0003.78
2024-06-01 12:38:00,SystemResetWarning,0829.1,5.00,000.00,030.0,029.2,000.0,038.4,031.7,022.1,0000.0,0004.66,0010.99,0003.81
2024-06-01 12:39:00,SystemResetWarning,0829.1,5.00,000.00,030.0,029.2,000.0,038.4,031.7,021.8,0000.0,0004.68,0010.74,0003.86
2024-06-01 12:40:00,SystemResetWarning,0829.1,5.01,000.00,030.0,029.2,000.0,038.4,031.7,021.8,0000.0,0004.75,0010.77,0003.88
2024-06-01 12:41:00,SystemResetWarning,0829.1,5.00,000.00,030.0,029.2,000.0,038.4,031.7,021.1,0000.0,0004.79,0010.60,0003.91
2024-06-01 12:42:00,SystemResetWarning,0829.1,5.00,000.00,030.0,029.2,000.0,038.4,031.7,020.1,0000.0,0004.79,0010.40,0003.91
2024-06-01 12:43:00,SystemResetWarning,0829.1,5.00,000.00,030.0,029.2,000.0,038.4,031.7,020.2,0000.0,0004.85,0010.57,0003.94
2024-06-01 12:44:00,SystemResetWarning,0829.1,4.99,000.00,030.0,029.2,000.0,038.4,031.7,020.2,0000.0,0004.89,0011.01,0003.95
2024-06-01 12:45:00,SystemResetWarning,0829.1,5.00,000.00,030.0,029.2,000.0,038.4,031.7,020.3,0000.0,0004.93,0012.16,0003.94
2024-06-01 12:46:00,SystemResetWarning,0829.1,5.00,000.00,030.0,029.3,000.0,038.4,031.7,021.0,0000.0,0004.87,0011.76,0003.90
2024-06-01 12:47:00,SystemResetWarning,0829.2,4.99,000.00,030.0,029.3,000.0,038.4,031.7,020.8,0000.0,0004.82,0011.59,0003.88
2024-06-01 12:48:00,SystemResetWarning,0829.2,5.01,000.00,030.0,029.3,000.0,038.4,031.7,022.3,0000.0,0004.81,0011.80,0003.86
2024-06-01 12:49:00,SystemResetWarning,0829.2,5.02,000.00,030.0,029.3,000.0,038.4,031.7,023.3,0000.0,0004.81,0012.10,0003.83
2024-06-01 12:50:00,SystemResetWarning,0829.2,4.99,000.00,030.0,029.3,000.0,038.4,031.7,022.7,0000.0,0004.80,0012.46,0003.78
2024-06-01 12:51:00,SystemResetWarning,0829.2,4.98,000.00,030.0,029.3,000.0,038.4,031.7,022.7,0000.0,0004.73,0012.63,0003.75
2024-06-01 12:52:00,SystemResetWarning,0829.2,5.00,000.00,030.0,029.3,000.0,038.4,031.7,022.8,0000.0,0004.68,0012.83,0003.70
2024-06-01 12:53:00,SystemResetWarning,0829.2,5.00,000.00,030.0,029.3,000.0,038.4,031.7,022.3,0000.0,0004.70,0013.31,0003.70
2024-06-01 12:54:00,SystemResetWarning,0829.3,5.01,000.00,030.0,029.3,000.0,038.4,031.8,022.3,0000.0,0004.72,0013.25,0003.72
2024-06-01 12:55:00,SystemResetWarning,0829.2,5.01,000.00,030.1,029.3,000.0,038.4,031.7,022.1,0000.0,0004.74,0013.44,0003.73
2024-06-01 12:56:00,SystemResetWarning,0829.2,5.00,000.00,030.1,029.3,000.0,038.4,031.7,022.4,0000.0,0004.70,0012.52,0003.73
2024-06-01 12:57:00,SystemResetWarning,0829.3,5.00,000.00,030.1,029.3,000.0,038.4,031.7,022.7,0000.0,0004.73,0012.85,0003.75
2024-06-01 12:58:00,SystemResetWarning,0829.2,5.00,000.00,030.1,029.3,000.0,038.4,031.8,023.0,0000.0,0004.75,0013.45,0003.76
2024-06-01 12:59:00,SystemResetWarning,0829.2,5.00,000.00,030.1,029.3,000.0,038.4,031.8,023.0,0000.0,0004.71,0012.55,0003.78
